Ames, IA

5:23 AM CDT on July 30, 2016 (GMT -0500)
Ames Municipal

Weather History for KAMW - December, 2010

Change the Weather History Date:

Sunday, December 26, 2010

  Actual Average Record
Temperature  
Mean Temperature 13 °F 20 °F  
Max Temperature 16 °F 29 °F 51 °F (2008)
Min Temperature 9 °F 12 °F -8 °F (1996)
Degree Days  
Heating Degree Days 52 45  
Month to date heating degree days 1185 1076  
Since 1 July heating degree days 2436 2530  
Cooling Degree Days 0 0  
Month to date cooling degree days 0 0  
Year to date cooling degree days 980 752  
Moisture  
Dew Point 11 °F    
Average Humidity 92    
Maximum Humidity 100    
Minimum Humidity 83    
Precipitation  
Precipitation T in 0.02 in 0.16 in (2015)
Month to date precipitation 0.11 0.95  
Year to date precipitation 49.25  
Sea Level Pressure  
Sea Level Pressure 30.44 in    
Wind  
Wind Speed 5 mph (NNW)    
Max Wind Speed 18 mph    
Max Gust Speed 21 mph    
Visibility 4 miles    
Events Fog , Snow    
T = Trace of Precipitation, MM = Missing Value Source: NWS Daily Summary

Daily Weather History Graph

Daily Weather History Graph

Search for Another Location

Airport or City:

Trip Planner

Search our weather history database for the weather conditions in past years. The results will help you decide how hot, cold, wet, or windy it might be!

Date:

Astronomy

Dec. 26, 2010 Rise Set
Actual Time 7:41 AM CST 4:49 PM CST
Civil Twilight 7:09 AM CST 5:20 PM CST
Nautical Twilight 6:34 AM CST 5:56 PM CST
Astronomical Twilight 6:00 AM CST 6:30 PM CST
Moon 11:25 PM CST (12/26) 10:56 AM CST (12/26)
Length of Visible Light 10h 11m
Length of Day
9h 07m
Waning Gibbous, 66% of the Moon is Illuminated
Dec 26
Waning Gibbous
Dec 27
Last Quarter
Jan 4
New
Jan 12
First Quarter
Jan 19
Full

Hourly Weather History & Observations

Time (CST) Temp. Windchill Dew Point Humidity Pressure Visibility Wind Dir Wind Speed Gust Speed Precip Events Conditions
12:11 AM 10.4 °F -4.8 °F 8.6 °F 92% 30.46 in 10.0 mi North 12.7 mph - N/A   Overcast
12:53 AM 10.9 °F -2.6 °F 9.0 °F 92% 30.49 in 10.0 mi North 10.4 mph - N/A   Overcast
1:53 AM 12.0 °F -2.0 °F 9.0 °F 88% 30.48 in 2.5 mi North 11.5 mph - 0.00 in Snow Light Snow
2:06 AM 10.4 °F -4.1 °F 8.6 °F 92% 30.44 in 4.0 mi North 11.5 mph - 0.00 in Snow Light Snow
2:53 AM 10.0 °F -1.9 °F 7.0 °F 87% 30.49 in 10.0 mi North 8.1 mph - 0.00 in   Clear
3:50 AM 10.4 °F -3.3 °F 6.8 °F 85% 30.44 in 10.0 mi NNW 10.4 mph - N/A   Mostly Cloudy
3:53 AM 10.0 °F -2.9 °F 6.1 °F 84% 30.49 in 10.0 mi NNW 9.2 mph - N/A   Mostly Cloudy
4:13 AM 10.4 °F -2.4 °F 8.6 °F 92% 30.44 in 9.0 mi NW 9.2 mph - N/A   Overcast
4:53 AM 10.9 °F -0.8 °F 9.0 °F 92% 30.50 in 8.0 mi NW 8.1 mph - N/A   Overcast
5:53 AM 12.0 °F 1.5 °F 10.0 °F 92% 30.50 in 5.0 mi NW 6.9 mph - N/A   Overcast
6:03 AM 12.2 °F 1.7 °F 10.4 °F 92% 30.45 in 5.0 mi NW 6.9 mph - N/A   Overcast
6:53 AM 12.0 °F 1.5 °F 10.0 °F 92% 30.51 in 4.0 mi NNW 6.9 mph - N/A   Overcast
7:50 AM 12.2 °F -0.2 °F 10.4 °F 92% 30.45 in 2.0 mi NNW 9.2 mph - N/A   Overcast
7:53 AM 12.9 °F 1.6 °F 10.9 °F 92% 30.50 in 2.0 mi NNW 8.1 mph - N/A   Overcast
8:35 AM 12.2 °F 1.7 °F 12.2 °F 100% 30.45 in 3.0 mi North 6.9 mph - N/A   Overcast
8:53 AM 14.0 °F 6.5 °F 12.0 °F 92% 30.50 in 4.0 mi NNW 4.6 mph - N/A   Overcast
9:04 AM 14.0 °F 3.9 °F 12.2 °F 93% 30.45 in 1.8 mi North 6.9 mph - 0.00 in Snow Light Snow
9:18 AM 14.0 °F 5.1 °F 12.2 °F 93% 30.45 in 2.0 mi NNE 5.8 mph - 0.00 in Snow Light Snow
9:39 AM 14.0 °F 8.2 °F 12.2 °F 93% 30.46 in 4.0 mi NE 3.5 mph - 0.00 in   Overcast
9:53 AM 15.1 °F 9.4 °F 12.9 °F 91% 30.51 in 3.0 mi NNE 3.5 mph - 0.00 in   Overcast
10:04 AM 15.8 °F 7.2 °F 12.2 °F 86% 30.46 in 2.0 mi NNW 5.8 mph - N/A   Overcast
10:19 AM 15.8 °F 8.6 °F 12.2 °F 86% 30.46 in 3.0 mi NNW 4.6 mph - 0.00 in   Overcast
10:45 AM 15.8 °F 10.2 °F 12.2 °F 86% 30.46 in 2.5 mi NW 3.5 mph - 0.00 in   Overcast
10:53 AM 15.1 °F 9.4 °F 12.0 °F 88% 30.51 in 2.5 mi NNW 3.5 mph - 0.00 in   Overcast
11:12 AM 15.8 °F 7.2 °F 12.2 °F 86% 30.46 in 4.0 mi NW 5.8 mph - N/A   Overcast
11:32 AM 15.8 °F 7.2 °F 12.2 °F 86% 30.46 in 2.5 mi NW 5.8 mph - N/A   Overcast
11:53 AM 16.0 °F - 12.9 °F 88% 30.49 in 3.0 mi Calm Calm - N/A   Overcast
12:20 PM 15.8 °F - 12.2 °F 86% 30.42 in 2.5 mi Calm Calm - N/A   Overcast
12:53 PM 16.0 °F 10.4 °F 12.9 °F 88% 30.46 in 2.5 mi North 3.5 mph - N/A   Overcast
1:38 PM 15.8 °F 7.2 °F 12.2 °F 86% 30.40 in 4.0 mi WSW 5.8 mph - N/A   Overcast
1:53 PM 15.1 °F 6.4 °F 12.0 °F 88% 30.45 in 6.0 mi WSW 5.8 mph - N/A   Overcast
2:53 PM 15.1 °F 9.4 °F 12.9 °F 91% 30.45 in 6.0 mi West 3.5 mph - N/A   Overcast
3:53 PM 14.0 °F 8.2 °F 12.0 °F 92% 30.45 in 8.0 mi West 3.5 mph - N/A   Overcast
4:53 PM 14.0 °F 8.2 °F 10.9 °F 88% 30.45 in 6.0 mi WSW 3.5 mph - N/A   Overcast
5:50 PM 12.2 °F - 10.4 °F 92% 30.39 in 6.0 mi Calm Calm - N/A   Overcast
5:53 PM 12.9 °F 6.9 °F 12.0 °F 96% 30.44 in 6.0 mi SW 3.5 mph - N/A   Overcast
6:53 PM 14.0 °F - 10.9 °F 88% 30.44 in 4.0 mi Calm Calm - N/A   Overcast
7:13 PM 12.2 °F - 12.2 °F 100% 30.38 in 2.5 mi Calm Calm - N/A   Overcast
7:53 PM 12.9 °F 3.8 °F 12.0 °F 96% 30.42 in 2.0 mi SE 5.8 mph - N/A   Overcast
8:01 PM 12.2 °F 6.1 °F 12.2 °F 100% 30.36 in 1.5 mi SSE 3.5 mph - N/A   Overcast
8:11 PM 12.2 °F 6.1 °F 10.4 °F 92% 30.36 in 2.5 mi ESE 3.5 mph - N/A   Overcast
8:26 PM 12.2 °F 4.3 °F 10.4 °F 92% 30.35 in 1.2 mi ESE 4.6 mph - N/A   Overcast
8:44 PM 12.2 °F 2.9 °F 10.4 °F 92% 30.35 in 0.5 mi SSE 5.8 mph - N/A Fog Light Freezing Fog
8:53 PM 12.9 °F 5.2 °F 10.9 °F 92% 30.39 in 0.5 mi ESE 4.6 mph - N/A Fog Light Freezing Fog
9:11 PM 12.2 °F 2.9 °F 10.4 °F 92% 30.34 in 0.2 mi SE 5.8 mph - N/A Fog Light Freezing Fog
9:53 PM 12.0 °F 5.9 °F 10.9 °F 95% 30.39 in 0.2 mi South 3.5 mph - N/A Fog Light Freezing Fog
10:53 PM 10.9 °F - 10.0 °F 96% 30.39 in 0.2 mi Calm Calm - N/A Fog Light Freezing Fog
11:53 PM 10.0 °F 0.4 °F 8.1 °F 92% 30.38 in 0.2 mi South 5.8 mph - N/A Fog Light Freezing Fog